Lake Hartwell Weather Center

Moon Phase Calendar



Lake Hartwell Water Level
Online Cameras

 


      

Current Conditions in Centerville
9/18/2021 5:04:57 PM

80°F
Feels Like 84
Clouds
Humidity
72%
Pressure
30.09"
Wind
0
Dew Point
71°F
UV Index
1/10 (Low)
Visibility
6 mi

Hourly Forecast

Date & Time Sat, Sep 18
5:00 PM
Sat, Sep 18
6:00 PM
Sat, Sep 18
7:00 PM
Sat, Sep 18
8:00 PM
Sat, Sep 18
9:00 PM
Sat, Sep 18
10:00 PM
Sat, Sep 18
11:00 PM
Sun, Sep 19
12:00 AM
Sun, Sep 19
1:00 AM
Sun, Sep 19
2:00 AM
Sun, Sep 19
3:00 AM
Sun, Sep 19
4:00 AM
Sun, Sep 19
5:00 AM
Sun, Sep 19
6:00 AM
Sun, Sep 19
7:00 AM
Sun, Sep 19
8:00 AM
Sun, Sep 19
9:00 AM
Sun, Sep 19
10:00 AM
Sun, Sep 19
11:00 AM
Sun, Sep 19
12:00 PM
Sun, Sep 19
1:00 PM
Sun, Sep 19
2:00 PM
Sun, Sep 19
3:00 PM
Sun, Sep 19
4:00 PM
Sun, Sep 19
5:00 PM
Sun, Sep 19
6:00 PM
Sun, Sep 19
7:00 PM
Sun, Sep 19
8:00 PM
Sun, Sep 19
9:00 PM
Sun, Sep 19
10:00 PM
Sun, Sep 19
11:00 PM
Mon, Sep 20
12:00 AM
Mon, Sep 20
1:00 AM
Mon, Sep 20
2:00 AM
Mon, Sep 20
3:00 AM
Mon, Sep 20
4:00 AM
Mon, Sep 20
5:00 AM
Mon, Sep 20
6:00 AM
Mon, Sep 20
7:00 AM
Mon, Sep 20
8:00 AM
Mon, Sep 20
9:00 AM
Mon, Sep 20
10:00 AM
Mon, Sep 20
11:00 AM
Mon, Sep 20
12:00 PM
Mon, Sep 20
1:00 PM
Mon, Sep 20
2:00 PM
Mon, Sep 20
3:00 PM
Mon, Sep 20
4:00 PM
Condition
Clouds

Clouds

Clouds

Clouds

Clouds

Clouds

Clouds

Clouds

Rain

Rain

Rain

Rain

Rain

Rain

Clouds

Clouds

Clouds

Clouds

Clouds

Clouds

Clouds

Clouds

Clouds

Clouds

Clouds

Clouds

Rain

Rain

Clouds

Clouds

Clouds

Clouds

Clouds

Clouds

Clouds

Clouds

Clouds

Rain

Rain

Rain

Rain

Rain

Rain

Rain

Rain

Rain

Rain

Rain
Temperature 81°F80°F79°F76°F74°F72°F72°F72°F71°F69°F69°F69°F69°F69°F69°F69°F70°F70°F71°F72°F72°F73°F74°F73°F73°F74°F72°F69°F69°F69°F69°F69°F68°F68°F68°F68°F67°F67°F67°F67°F67°F68°F68°F68°F69°F70°F70°F69°F
Feels Like 85°F84°F80°F77°F75°F72°F72°F73°F72°F70°F70°F70°F70°F70°F70°F70°F71°F71°F72°F73°F73°F74°F75°F74°F74°F75°F73°F70°F70°F70°F70°F70°F69°F69°F69°F69°F68°F68°F68°F68°F68°F69°F69°F69°F70°F71°F71°F71°F
Cloudiness 75%80%85%90%95%100%100%100%100%100%100%100%100%100%100%100%100%100%100%100%100%100%100%100%100%100%100%100%100%100%100%100%100%100%100%100%100%100%100%100%100%100%100%100%100%100%100%100%
Visibility 6 mi6 mi6 mi6 mi6 mi6 mi6 mi6 mi6 mi6 mi6 mi6 mi6 mi6 mi6 mi6 mi6 mi6 mi6 mi6 mi6 mi6 mi6 mi6 mi6 mi6 mi6 mi6 mi6 mi6 mi6 mi6 mi6 mi6 mi6 mi6 mi6 mi6 mi6 mi6 mi6 mi4 mi6 mi6 mi6 mi6 mi6 mi4 mi
Precipitation 55%51%47%47%23%20%18%14%22%37%82%90%86%86%85%73%12%12%18%32%48%60%72%72%72%78%81%89%42%37%41%47%37%42%35%46%57%71%91%94%100%100%99%99%100%100%100%100%
Humidity 73%72%74%77%80%81%80%77%81%90%92%93%93%92%92%93%92%91%90%87%85%82%81%83%84%82%86%92%94%93%93%93%94%95%96%96%96%97%97%98%97%98%98%98%96%93%93%96%
Dew Point 71°F70°F70°F68°F67°F66°F65°F64°F65°F66°F66°F66°F67°F67°F67°F67°F68°F67°F68°F68°F68°F68°F67°F68°F68°F68°F68°F67°F67°F67°F67°F67°F66°F67°F66°F66°F66°F66°F66°F66°F67°F67°F67°F67°F68°F68°F68°F68°F
Pressure 30.09"30.09"30.06"30.06"30.06"30.09"30.06"30.06"30.06"30.06"30.06"30.06"30.06"30.06"30.09"30.09"30.09"30.12"30.12"30.12"30.12"30.09"30.06"30.06"30.06"30.06"30.06"30.06"30.09"30.09"30.09"30.09"30.09"30.09"30.09"30.09"30.09"30.09"30.09"30.12"30.12"30.15"30.15"30.15"30.15"30.12"30.12"30.09"
Wind Speed 5.3 mph7.7 mph6.7 mph4.7 mph4.4 mph4.1 mph3.4 mph3.9 mph4 mph4.3 mph3.5 mph3.3 mph4 mph4 mph4.5 mph5.1 mph5.3 mph5.1 mph4.2 mph4 mph4.5 mph4.8 mph4.3 mph2.6 mph2.2 mph2.9 mph4.8 mph6 mph6 mph5.5 mph5.2 mph4.9 mph5.3 mph5.1 mph5.2 mph5.3 mph5.1 mph6.2 mph6.8 mph6.7 mph7 mph7.5 mph7.6 mph7 mph6.4 mph5.3 mph5.7 mph5 mph
Wind
Direction
335°
NNW
331°
NNW
338°
NNW
312°
NW
295°
WNW
311°
NW
334°
NNW
354°
N
350°
N
330°
NNW
355°
N
26°
NNE
37°
NE
49°
NE
40°
NE
46°
NE
52°
NE
67°
ENE
85°
E
70°
ENE
67°
ENE
82°
E
87°
E
72°
ENE
38°
NE
26°
NNE

N
15°
NNE
24°
NNE
28°
NNE
47°
NE
71°
ENE
79°
E
85°
E
93°
E
84°
E
74°
ENE
53°
NE
61°
ENE
56°
NE
54°
NE
50°
NE
55°
NE
60°
ENE
59°
ENE
73°
ENE
104°
ESE
111°
ESE

Daily Forecast

Date High Low Precip. Humidity
Today
Sep 18

Clouds
85 °F
66 °F
55%
54%
Sunday
Sep 19

Rain
74 °F
69 °F
90%
85%
Monday
Sep 20

Rain
70 °F
67 °F
100%
93%
Tuesday
Sep 21

Rain
68 °F
66 °F
99%
96%
Wednesday
Sep 22

Rain
82 °F
64 °F
46%
57%
Thursday
Sep 23

Clear
75 °F
54 °F
0%
36%
Friday
Sep 24

Clear
74 °F
51 °F
0%
39%
Saturday
Sep 25

Clouds
76 °F
54 °F
11%
42%
Sunday
Sep 26

Rain
80 °F
58 °F
42%
39%
Monday
Sep 27

Clear
73 °F
50 °F
25%
33%
Tuesday
Sep 28

Clear
74 °F
48 °F
0%
40%
Wednesday
Sep 29

Clear
80 °F
52 °F
0%
31%
Thursday
Sep 30

Clear
73 °F
48 °F
0%
36%
Friday
Oct 1

Clear
76 °F
50 °F
0%
34%
Saturday
Oct 2

Clear
82 °F
56 °F
0%
41%
Sunday
Oct 3

Clear
84 °F
60 °F
0%
46%

Temperature 8-14 Day Outlook



Precipitation 8-14 Day Outlook




Quick Links
Lake Hartwell News
Lake Hartwell Photos
Lake Hartwell Videos




About Us
Contact Us
Site Map
Search Site
Advertise With Us
   
www.MyLakeHartwell.com
THE LAKE HARTWELL WEBSITE

Copyright 2021, Lakes Online
Privacy    |    Legal